Location: Eexterzandvoort
(53.0303°N, 6.7884°E)
Time: 06:11:30
(UTC+00:00)

Cosmos 1743 Rocket - Pass Details

Date: 19 May 2025
Orbit: 599 x 626 km, 82.6° (Epoch: 14 June)

Event Time Altitude Azimuth Distance (km) Brightness Sun altitude
Rises 23:19:15 0° 346° (NNW) 2,926 8.7 -17.0°
Reaches altitude 10° 23:21:31 10° 344° (NNW) 2,012 7.4 -17.0°
Maximum altitude 23:25:56 64° 263° (W) 697 3.7 -17.0°
Enters shadow 23:27:48 33° 194° (SSW) 1,060 4.2 -17.0°
